SCOUT X-1 DEB, 4026

Orbit data source: Space-Track

SCOUT X-1 DEB, 4026 is space debris in LEO originally from a launch on Thu, 16 Feb 1961 UTC launched from the Wallops Island (WLPIS). Debris objects in space refer to the collection of defunct objects orbiting the Earth. Examples of debris include non-operational satellites, rocket bodies, and fragments generated from explosions, collisions, or faulty payload assembly.

Loading next visibility...
Identifier
4026, 1961-004G
Orbit
LEO
Country
Flag of USUS
Related business
Manufacturer
Unknown
Mission
Spacecraft
Bus & Motor
Unknown
Mass
Unknown
Launch date (UTC)
1961-02-16 (65 years ago)
Launch vehicle
Unknown
Launch site
Wallops Island (WLPIS)
Object type
Payload
Rocket body
Debris
Shape & HBR
Unknown shape, 0.1 m
Radar Cross Section
Small (<0.1 m²)

Expand to show TLE details & history
Last TLE update: 19 hours ago

TLE from 19 hours ago
0 SCOUT X-1 DEB
1 04026U 61004G   26145.59874548  .00004583  00000-0  84266-3 0  9990
2 04026  38.8210 247.0326 0378076   3.8090 356.5410 14.28819882130572
Epoch: 2026-05-25T14:22Z
TLE epoch observation values (Epoch: 2026-05-25T14:22:11.609Z)
Latitude
-0.00003°
Longitude
148.29996°
Altitude
524.376 km
Speed
7.745 km/s
True Right ascension
16h 28m 07s
True Declination
0° 00' 00"
Sunlit
Object was in full shadow at epoch
Visualization orbit readout
Latitude
Unknown
Longitude
Unknown
Altitude
Unknown
Speed
Unknown
Apparent Right ascension
Unknown
Apparent Declination
Unknown
Sunlit
N/A
Visualization observer readout
Local Sidereal Time
19:07:19
Azimuth
Unknown
Elevation
Unknown
Doppler factor
Unknown
Orbital elements
Apogee altitude
1,069.529 km
Perigee altitude
526.888 km
Semi-major axis
7,176.346 km
Eccentricity
0.03781
Inclination
38.821°
RAAN
247.0326°
Arg. of periapsis
3.809°
True anomaly
356.26669°
Mean anomaly
356.541°
Eccentric anomaly
356.40518°
Mean motion
3.57016 °/min
Orbital period
100.84 mins
BSTAR
0.00084266
Loading maneuver chart data...
Computing Atmospheric mass density...
Loading historical data...
Loading historical data...
Loading historical data...
Loading historical data...
Loading historical data...
Loading historical data...
Loading historical data...

Documentation

Showing up to 5 results
|